Weather History for KCRP - August, 2012

Change the Weather History Date:

Wednesday, August 22, 2012

  Actual Average Record
Temperature  
Mean Temperature 88 °F 85 °F  
Max Temperature 97 °F 94 °F 101 °F (1997)
Min Temperature 78 °F 75 °F 67 °F (1986)
Degree Days  
Heating Degree Days 0 0  
Month to date heating degree days 0 0  
Since 1 June heating degree days 0 0  
Since 1 July heating degree days 0 0  
Cooling Degree Days 23 20  
Month to date cooling degree days 503 440  
Year to date cooling degree days 3003 2390  
Since 1 June cooling degree days 1770 1549  
Growing Degree Days 38 (Base 50)    
Moisture  
Dew Point 72 °F    
Average Humidity 58    
Maximum Humidity 74    
Minimum Humidity 41    
Precipitation  
Precipitation 0.00 in 0.11 in 4.56 in (1999)
Month to date precipitation 0.12 1.71  
Year to date precipitation 14.42 18.13  
Snow  
Snow 0.00 in - - ()
Month to date snowfall 0.0  
Since 1 June snowfall 0.0  
Since 1 July snowfall 0.0  
Snow Depth 0.00 in    
Sea Level Pressure  
Sea Level Pressure 29.95 in    
Wind  
Wind Speed 9 mph (East)    
Max Wind Speed 20 mph    
Max Gust Speed 26 mph    
Visibility 10 miles    
Events      
T = Trace of Precipitation, MM = Missing Value Source: NWS Daily Summary

Daily Weather History Graph

Daily Weather History Graph

Search for Another Location

Airport or City:

Trip Planner

Search our weather history database for the weather conditions in past years. The results will help you decide how hot, cold, wet, or windy it might be!

Date:

Astronomy

Aug. 22, 2012 Rise Set
Actual Time 7:04 AM CDT 8:00 PM CDT
Civil Twilight 6:40 AM CDT 8:24 PM CDT
Nautical Twilight 6:11 AM CDT 8:53 PM CDT
Astronomical Twilight 5:42 AM CDT 9:22 PM CDT
Moon 12:08 PM CDT (8/22) 11:21 PM CDT (8/22)
Length of Visible Light 13h 44m
Length of Day
12h 56m
Waxing Crescent, 29% of the Moon is Illuminated
Aug 22
Waxing Crescent
Aug 24
First Quarter
Aug 31
Full
Sep 8
Last Quarter
Sep 15
New

Hourly Weather History & Observations

Time (CDT) Temp. Heat Index Dew Point Humidity Pressure Visibility Wind Dir Wind Speed Gust Speed Precip Events Conditions
12:51 AM 84.0 °F 90.2 °F 73.0 °F 69% 29.95 in 10.0 mi SE 11.5 mph - N/A   Partly Cloudy
1:51 AM 82.9 °F 88.8 °F 73.0 °F 72% 29.95 in 10.0 mi ESE 8.1 mph - N/A   Partly Cloudy
2:51 AM 82.9 °F 88.8 °F 73.0 °F 72% 29.94 in 10.0 mi ESE 6.9 mph - N/A   Partly Cloudy
3:51 AM 82.0 °F 87.4 °F 73.0 °F 74% 29.95 in 10.0 mi East 4.6 mph - N/A   Partly Cloudy
4:51 AM 82.9 °F 89.4 °F 73.9 °F 74% 29.94 in 10.0 mi ESE 8.1 mph - N/A   Partly Cloudy
5:51 AM 81.0 °F 85.2 °F 72.0 °F 74% 29.95 in 10.0 mi ESE 3.5 mph - N/A   Partly Cloudy
6:51 AM 81.0 °F 85.2 °F 72.0 °F 74% 29.96 in 10.0 mi Calm Calm - N/A   Partly Cloudy
7:51 AM 81.0 °F 85.2 °F 72.0 °F 74% 29.97 in 10.0 mi North 4.6 mph - N/A   Partly Cloudy
8:51 AM 84.9 °F 92.1 °F 73.9 °F 69% 29.98 in 10.0 mi NE 5.8 mph - N/A   Scattered Clouds
9:51 AM 89.1 °F 96.0 °F 72.0 °F 57% 29.99 in 10.0 mi East 6.9 mph - N/A   Scattered Clouds
10:51 AM 91.0 °F 96.6 °F 70.0 °F 50% 29.99 in 10.0 mi East 8.1 mph 17.3 mph N/A   Scattered Clouds
11:51 AM 93.9 °F 97.5 °F 66.9 °F 41% 29.99 in 10.0 mi ESE 5.8 mph - N/A   Scattered Clouds
12:51 PM 95.0 °F 100.7 °F 69.1 °F 43% 29.98 in 10.0 mi ENE 6.9 mph - N/A   Scattered Clouds
1:51 PM 96.1 °F 103.5 °F 71.1 °F 44% 29.97 in 10.0 mi Variable 4.6 mph 16.1 mph N/A   Scattered Clouds
2:51 PM 96.1 °F 103.5 °F 71.1 °F 44% 29.95 in 10.0 mi East 9.2 mph - N/A   Mostly Cloudy
3:51 PM 95.0 °F 101.3 °F 70.0 °F 44% 29.93 in 10.0 mi East 16.1 mph 23.0 mph N/A   Scattered Clouds
4:51 PM 95.0 °F 103.2 °F 72.0 °F 47% 29.93 in 10.0 mi East 17.3 mph - N/A   Scattered Clouds
5:51 PM 93.2 °F 100.5 °F 71.6 °F 49% 29.91 in 10.0 mi East 15.0 mph 21.9 mph N/A   Partly Cloudy
6:51 PM 90.0 °F 96.9 °F 72.0 °F 55% 29.91 in 10.0 mi East 11.5 mph - N/A   Partly Cloudy
7:51 PM 87.1 °F 94.5 °F 73.0 °F 63% 29.91 in 10.0 mi ESE 9.2 mph - N/A   Partly Cloudy
8:51 PM 84.9 °F 92.1 °F 73.9 °F 69% 29.93 in 10.0 mi ESE 11.5 mph - N/A   Partly Cloudy
9:51 PM 84.2 °F 90.9 °F 73.4 °F 70% 29.95 in 10.0 mi ESE 10.4 mph - N/A   Partly Cloudy
10:51 PM 84.0 °F 90.2 °F 73.0 °F 69% 29.97 in 10.0 mi SE 10.4 mph - N/A   Scattered Clouds
11:51 PM 82.9 °F 88.8 °F 73.0 °F 72% 29.97 in 10.0 mi ESE 8.1 mph - N/A   Scattered Clouds